Location: Cheching
(60.0667°N, 164.2167°W)
Time: 21:50:05
(UTC+00:00)

NOAA 15 - Pass Details

Date: 25 January 2021
Orbit: 798 x 812 km, 98.7° (Epoch: 07 March)

Event Time Altitude Azimuth Distance (km) Brightness Sun altitude
Rises 05:40:27 0° 173° (S) 3,305 7.8 -20.2°
Reaches altitude 10° 05:42:49 10° 177° (S) 2,380 7.0 -20.5°
Maximum altitude 05:48:01 59° 257° (WSW) 933 5.2 -21.1°
Drops below altitude 10° 05:53:16 10° 337° (NNW) 2,406 7.3 -21.8°
Sets 05:55:40 0° 342° (NNW) 3,343 8.0 -22.1°
